AAL1392 KPHX-KLAX

Flight info

Callsign AAL1392
Flight time 0h 57m
Altitude 32000
Route KEENS3 WLVRN DCT ESTWD HLYWD1
Aircraft A319/M-SDE3FGHIRWY/LB1

Departure

Time 2026-04-22 01:58
Airport Phoenix Sky Harbor International Airport (KPHX)

Arrival

Time 2026-04-22 02:55
Airport Los Angeles International Airport (KLAX)
Time Latitude Longitude Altitude Speed Heading
2026-04-22 01:27 33.43723 -111.99883 1131 ft 0 kts 270°
2026-04-22 01:41 33.43723 -111.99882 1131 ft 0 kts 270°
2026-04-22 01:49 33.43723 -111.99872 1136 ft 3 kts 275°
2026-04-22 01:49 33.43719 -111.99849 1136 ft 3 kts 300°
2026-04-22 01:50 33.43707 -111.99833 1136 ft 3 kts 338°
2026-04-22 01:50 33.43698 -111.99829 1135 ft 2 kts 359°
2026-04-22 01:50 33.43691 -111.99829 1135 ft 0 kts
2026-04-22 01:52 33.43711 -111.99829 1136 ft 6 kts 360°
2026-04-22 01:53 33.43759 -111.99829 1134 ft 8 kts 360°
2026-04-22 01:53 33.43821 -111.99829 1131 ft 10 kts 360°
2026-04-22 01:53 33.43893 -111.99816 1132 ft 11 kts 37°
2026-04-22 01:53 33.43904 -111.99716 1132 ft 15 kts 90°
2026-04-22 01:54 33.43904 -111.99580 1132 ft 17 kts 90°
2026-04-22 01:54 33.43904 -111.99430 1132 ft 19 kts 90°
2026-04-22 01:54 33.43904 -111.99280 1132 ft 15 kts 91°
2026-04-22 01:54 33.43827 -111.99228 1131 ft 16 kts 182°
2026-04-22 01:55 33.43711 -111.99229 1134 ft 18 kts 180°
2026-04-22 01:55 33.43582 -111.99230 1134 ft 19 kts 180°
2026-04-22 01:55 33.43441 -111.99230 1133 ft 21 kts 180°
2026-04-22 01:55 33.43319 -111.99230 1132 ft 14 kts 180°
2026-04-22 01:56 33.43235 -111.99239 1133 ft 12 kts 202°
2026-04-22 01:56 33.43175 -111.99301 1134 ft 11 kts 223°
2026-04-22 01:56 33.43118 -111.99364 1136 ft 11 kts 224°
2026-04-22 01:56 33.43103 -111.99423 1135 ft 0 kts 269°
2026-04-22 01:57 33.43103 -111.99457 1135 ft 25 kts 269°
2026-04-22 01:57 33.43103 -111.99992 1134 ft 100 kts 270°
2026-04-22 01:57 33.43105 -112.01066 1177 ft 152 kts 270°
2026-04-22 01:57 33.43097 -112.02411 1622 ft 168 kts 269°
2026-04-22 01:58 33.43083 -112.03844 2194 ft 174 kts 268°
2026-04-22 01:58 33.43053 -112.05273 3045 ft 169 kts 268°
2026-04-22 01:58 33.42988 -112.06673 3761 ft 172 kts 266°
2026-04-22 01:58 33.42798 -112.08157 4224 ft 190 kts 253°
2026-04-22 01:59 33.42282 -112.09722 4708 ft 214 kts 248°
2026-04-22 01:59 33.41694 -112.11446 5299 ft 233 kts 248°
2026-04-22 01:59 33.41060 -112.13319 6019 ft 250 kts 246°
2026-04-22 01:59 33.40392 -112.15305 6793 ft 263 kts 247°
2026-04-22 02:00 33.39720 -112.17367 7698 ft 269 kts 248°
2026-04-22 02:00 33.39289 -112.19569 8716 ft 275 kts 261°
2026-04-22 02:00 33.39344 -112.21890 9694 ft 285 kts 275°
2026-04-22 02:00 33.39706 -112.24257 10466 ft 296 kts 276°
2026-04-22 02:01 33.40089 -112.26759 10995 ft 316 kts 277°
2026-04-22 02:01 33.40513 -112.29406 11586 ft 332 kts 277°
2026-04-22 02:01 33.40954 -112.32151 12217 ft 346 kts 277°
2026-04-22 02:01 33.41383 -112.35070 12918 ft 357 kts 276°
2026-04-22 02:02 33.41799 -112.37967 13893 ft 357 kts 276°
2026-04-22 02:02 33.42219 -112.40933 14879 ft 356 kts 276°
2026-04-22 02:02 33.42630 -112.43874 15687 ft 361 kts 276°
2026-04-22 02:02 33.43038 -112.46811 16498 ft 365 kts 276°
2026-04-22 02:03 33.43454 -112.49818 17361 ft 367 kts 276°
2026-04-22 02:03 33.43876 -112.52846 18252 ft 370 kts 276°
2026-04-22 02:03 33.44317 -112.55914 18855 ft 378 kts 277°
2026-04-22 02:03 33.44792 -112.59032 19538 ft 383 kts 276°
2026-04-22 02:04 33.45104 -112.65394 20948 ft 385 kts 268°
2026-04-22 02:04 33.45155 -112.68618 21633 ft 388 kts 268°
2026-04-22 02:04 33.45192 -112.71855 22303 ft 390 kts 268°
2026-04-22 02:05 33.45228 -112.75119 22957 ft 393 kts 268°
2026-04-22 02:05 33.45353 -112.78401 23581 ft 398 kts 274°
2026-04-22 02:05 33.45938 -112.81665 24111 ft 405 kts 283°
2026-04-22 02:05 33.46976 -112.84833 24651 ft 410 kts 289°
2026-04-22 02:06 33.48088 -112.87988 25197 ft 412 kts 288°
2026-04-22 02:06 33.49201 -112.91165 25710 ft 414 kts 288°
2026-04-22 02:06 33.50315 -112.94359 26227 ft 417 kts 288°
2026-04-22 02:06 33.51436 -112.97573 26719 ft 419 kts 288°
2026-04-22 02:07 33.52562 -113.00802 27218 ft 421 kts 288°
2026-04-22 02:07 33.53698 -113.04059 27700 ft 424 kts 288°
2026-04-22 02:07 33.54836 -113.07327 28095 ft 427 kts 288°
2026-04-22 02:07 33.55980 -113.10623 28446 ft 430 kts 288°
2026-04-22 02:08 33.57133 -113.13941 28906 ft 432 kts 287°
2026-04-22 02:08 33.58293 -113.17272 29351 ft 435 kts 287°
2026-04-22 02:08 33.59462 -113.20631 29798 ft 437 kts 287°
2026-04-22 02:08 33.60629 -113.23992 30320 ft 436 kts 287°
2026-04-22 02:09 33.61788 -113.27333 30881 ft 433 kts 287°
2026-04-22 02:09 33.62941 -113.30659 31445 ft 430 kts 287°
2026-04-22 02:09 33.64090 -113.33968 31793 ft 429 kts 287°
2026-04-22 02:10 33.66369 -113.40549 31903 ft 425 kts 287°
2026-04-22 02:10 33.67494 -113.43828 32145 ft 424 kts 287°
2026-04-22 02:10 33.68613 -113.47093 32153 ft 423 kts 287°
2026-04-22 02:11 33.70855 -113.53616 32162 ft 422 kts 287°
2026-04-22 02:11 33.73091 -113.60135 32146 ft 422 kts 287°
2026-04-22 02:12 33.75331 -113.66661 31891 ft 422 kts 287°
2026-04-22 02:12 33.77563 -113.73190 31890 ft 422 kts 287°
2026-04-22 02:13 33.79791 -113.79712 31911 ft 422 kts 287°
2026-04-22 02:13 33.82008 -113.86233 31902 ft 421 kts 287°
2026-04-22 02:14 33.84205 -113.92704 31923 ft 420 kts 286°
2026-04-22 02:14 33.86412 -113.99209 31916 ft 420 kts 286°
2026-04-22 02:15 33.88608 -114.05705 31915 ft 419 kts 286°
2026-04-22 02:15 33.90647 -114.12254 31914 ft 413 kts 279°
2026-04-22 02:16 33.91817 -114.18982 31909 ft 410 kts 276°
2026-04-22 02:16 33.92959 -114.25708 31903 ft 410 kts 276°
2026-04-22 02:17 33.94104 -114.32434 31898 ft 410 kts 276°
2026-04-22 02:17 33.95243 -114.39168 31902 ft 410 kts 276°
2026-04-22 02:18 33.96370 -114.45893 31906 ft 409 kts 276°
2026-04-22 02:18 33.97491 -114.52600 31917 ft 408 kts 276°
2026-04-22 02:19 33.98613 -114.59305 31906 ft 408 kts 276°
2026-04-22 02:19 33.99726 -114.66000 31904 ft 407 kts 275°
2026-04-22 02:20 34.00833 -114.72691 31900 ft 407 kts 275°
2026-04-22 02:20 34.01937 -114.79387 31899 ft 407 kts 275°
2026-04-22 02:21 34.03034 -114.86075 31891 ft 407 kts 275°
2026-04-22 02:21 34.04127 -114.92760 31886 ft 407 kts 275°
2026-04-22 02:22 34.05220 -114.99456 31882 ft 407 kts 275°
2026-04-22 02:22 34.06310 -115.06147 31903 ft 406 kts 275°
2026-04-22 02:23 34.07404 -115.12834 31929 ft 406 kts 275°
2026-04-22 02:23 34.08484 -115.19495 31925 ft 404 kts 275°
2026-04-22 02:24 34.09565 -115.26155 31909 ft 404 kts 275°
2026-04-22 02:24 34.10639 -115.32798 31918 ft 403 kts 275°
2026-04-22 02:25 34.11703 -115.39438 31924 ft 403 kts 275°
2026-04-22 02:25 34.12764 -115.46077 31913 ft 403 kts 275°
2026-04-22 02:26 34.13817 -115.52717 31923 ft 403 kts 275°
2026-04-22 02:26 34.14863 -115.59364 31910 ft 403 kts 275°
2026-04-22 02:27 34.15908 -115.66006 31954 ft 402 kts 274°
2026-04-22 02:27 34.16033 -115.72615 31954 ft 391 kts 259°
2026-04-22 02:28 34.15407 -115.79109 31974 ft 388 kts 259°
2026-04-22 02:28 34.14787 -115.85571 31979 ft 387 kts 259°
2026-04-22 02:29 34.14154 -115.92019 31993 ft 387 kts 259°
2026-04-22 02:29 34.13521 -115.98463 32025 ft 386 kts 259°
2026-04-22 02:30 34.12892 -116.04902 32025 ft 386 kts 259°
2026-04-22 02:30 34.12263 -116.11334 32022 ft 386 kts 259°
2026-04-22 02:31 34.11636 -116.17750 32019 ft 385 kts 259°
2026-04-22 02:31 34.10998 -116.24180 32009 ft 385 kts 259°
2026-04-22 02:32 34.10348 -116.30628 31653 ft 391 kts 259°
2026-04-22 02:32 34.10012 -116.33888 31233 ft 392 kts 259°
2026-04-22 02:32 34.09666 -116.37158 30660 ft 394 kts 259°
2026-04-22 02:32 34.09316 -116.40405 30090 ft 397 kts 259°
2026-04-22 02:33 34.08955 -116.43720 29446 ft 400 kts 259°
2026-04-22 02:33 34.08709 -116.45972 29047 ft 402 kts 259°
2026-04-22 02:33 34.08227 -116.50414 28270 ft 403 kts 260°
2026-04-22 02:33 34.07984 -116.52663 28017 ft 394 kts 260°
2026-04-22 02:34 34.07530 -116.56876 27695 ft 374 kts 260°
2026-04-22 02:34 34.07305 -116.58966 27523 ft 368 kts 260°
2026-04-22 02:34 34.06994 -116.62019 27265 ft 364 kts 261°
2026-04-22 02:34 34.06709 -116.65047 27017 ft 363 kts 261°
2026-04-22 02:35 34.06436 -116.68070 26776 ft 362 kts 261°
2026-04-22 02:35 34.06165 -116.71078 26393 ft 360 kts 261°
2026-04-22 02:35 34.05893 -116.74071 25991 ft 358 kts 261°
2026-04-22 02:35 34.05621 -116.77041 25621 ft 356 kts 261°
2026-04-22 02:36 34.05348 -116.79996 25227 ft 354 kts 261°
2026-04-22 02:36 34.05072 -116.82945 24830 ft 352 kts 262°
2026-04-22 02:36 34.04797 -116.85869 24426 ft 351 kts 262°
2026-04-22 02:36 34.04521 -116.88779 24086 ft 348 kts 262°
2026-04-22 02:37 34.04208 -116.91661 23597 ft 345 kts 261°
2026-04-22 02:37 34.03847 -116.94509 23065 ft 342 kts 259°
2026-04-22 02:37 34.03465 -116.97318 22601 ft 338 kts 259°
2026-04-22 02:37 34.03080 -117.00111 22161 ft 336 kts 259°
2026-04-22 02:38 34.02704 -117.02881 21708 ft 333 kts 259°
2026-04-22 02:38 34.02349 -117.05633 21252 ft 331 kts 260°
2026-04-22 02:38 34.02019 -117.08377 20802 ft 329 kts 260°
2026-04-22 02:38 34.01704 -117.11098 20354 ft 327 kts 260°
2026-04-22 02:39 34.01390 -117.13810 19914 ft 326 kts 260°
2026-04-22 02:39 34.01075 -117.16506 19471 ft 324 kts 260°
2026-04-22 02:39 34.00762 -117.19143 19076 ft 322 kts 260°
2026-04-22 02:39 34.00439 -117.21850 18630 ft 321 kts 260°
2026-04-22 02:40 34.00127 -117.24474 18175 ft 319 kts 260°
2026-04-22 02:40 33.99812 -117.27120 17613 ft 318 kts 260°
2026-04-22 02:40 33.99499 -117.29729 17314 ft 310 kts 260°
2026-04-22 02:40 33.99191 -117.32305 16858 ft 304 kts 260°
2026-04-22 02:41 33.98899 -117.34794 16330 ft 302 kts 260°
2026-04-22 02:41 33.98609 -117.37292 15912 ft 300 kts 260°
2026-04-22 02:41 33.98316 -117.39803 15492 ft 298 kts 260°
2026-04-22 02:41 33.98024 -117.42277 15086 ft 297 kts 259°
2026-04-22 02:42 33.97732 -117.44728 14682 ft 296 kts 259°
2026-04-22 02:42 33.97443 -117.47176 14278 ft 295 kts 260°
2026-04-22 02:42 33.97421 -117.49621 13871 ft 298 kts 272°
2026-04-22 02:42 33.97816 -117.52080 13363 ft 300 kts 278°
2026-04-22 02:43 33.98260 -117.54538 12919 ft 299 kts 277°
2026-04-22 02:43 33.98695 -117.56984 12447 ft 298 kts 277°
2026-04-22 02:43 33.99126 -117.59420 11987 ft 296 kts 277°
2026-04-22 02:43 33.99550 -117.61822 11536 ft 291 kts 277°
2026-04-22 02:44 33.99972 -117.64209 11091 ft 286 kts 277°
2026-04-22 02:44 34.00380 -117.66515 10659 ft 281 kts 277°
2026-04-22 02:44 34.00589 -117.68836 10250 ft 269 kts 264°
2026-04-22 02:44 34.00406 -117.71014 10180 ft 259 kts 259°
2026-04-22 02:45 34.00190 -117.73168 10079 ft 258 kts 260°
2026-04-22 02:45 33.99985 -117.75312 9961 ft 258 kts 260°
2026-04-22 02:45 33.99778 -117.77467 9580 ft 258 kts 260°
2026-04-22 02:45 33.99572 -117.79608 9241 ft 257 kts 260°
2026-04-22 02:46 33.99365 -117.81741 8923 ft 256 kts 261°
2026-04-22 02:46 33.99159 -117.83876 8595 ft 256 kts 260°
2026-04-22 02:46 33.98954 -117.86007 8273 ft 257 kts 261°
2026-04-22 02:46 33.98748 -117.88142 7949 ft 256 kts 261°
2026-04-22 02:47 33.98542 -117.90279 7612 ft 257 kts 261°
2026-04-22 02:47 33.98332 -117.92412 7293 ft 257 kts 261°
2026-04-22 02:47 33.98114 -117.94543 6965 ft 256 kts 261°
2026-04-22 02:47 33.97900 -117.96674 6643 ft 257 kts 261°
2026-04-22 02:48 33.97692 -117.98788 6396 ft 249 kts 261°
2026-04-22 02:48 33.97490 -118.00835 6176 ft 246 kts 262°
2026-04-22 02:48 33.97288 -118.02879 5873 ft 245 kts 262°
2026-04-22 02:48 33.97084 -118.04942 5544 ft 245 kts 262°
2026-04-22 02:49 33.96883 -118.06969 5225 ft 241 kts 263°
2026-04-22 02:49 33.96688 -118.08935 4908 ft 237 kts 263°
2026-04-22 02:49 33.96491 -118.10913 4580 ft 233 kts 263°
2026-04-22 02:49 33.96303 -118.12800 4274 ft 226 kts 263°
2026-04-22 02:50 33.96118 -118.14654 3976 ft 221 kts 263°
2026-04-22 02:50 33.95932 -118.16507 3678 ft 219 kts 263°
2026-04-22 02:50 33.95753 -118.18294 3405 ft 216 kts 264°
2026-04-22 02:50 33.95573 -118.20090 3111 ft 210 kts 263°
2026-04-22 02:51 33.95400 -118.21817 2830 ft 204 kts 264°
2026-04-22 02:51 33.95233 -118.23479 2557 ft 197 kts 264°
2026-04-22 02:51 33.95071 -118.25086 2307 ft 190 kts 264°
2026-04-22 02:51 33.94916 -118.26622 2065 ft 179 kts 264°
2026-04-22 02:52 33.94773 -118.28033 1812 ft 163 kts 264°
2026-04-22 02:52 33.94644 -118.29308 1609 ft 144 kts 264°
2026-04-22 02:52 33.94528 -118.30454 1435 ft 129 kts 264°
2026-04-22 02:52 33.94423 -118.31492 1263 ft 123 kts 263°
2026-04-22 02:53 33.94321 -118.32503 1105 ft 121 kts 264°
2026-04-22 02:53 33.94219 -118.33530 911 ft 125 kts 263°
2026-04-22 02:53 33.94117 -118.34559 726 ft 123 kts 263°
2026-04-22 02:53 33.94009 -118.35568 571 ft 121 kts 263°
2026-04-22 02:54 33.93910 -118.36561 430 ft 120 kts 267°
2026-04-22 02:54 33.93807 -118.37551 273 ft 118 kts 263°
2026-04-22 02:54 33.93709 -118.38530 155 ft 117 kts 262°
2026-04-22 02:54 33.93622 -118.39396 122 ft 83 kts 263°
2026-04-22 02:55 33.93573 -118.39885 126 ft 35 kts 263°
2026-04-22 02:55 33.93574 -118.40145 126 ft 36 kts 277°
2026-04-22 02:55 33.93623 -118.40401 123 ft 22 kts 274°
2026-04-22 02:55 33.93613 -118.40562 126 ft 20 kts 265°
2026-04-22 02:56 33.93597 -118.40733 124 ft 21 kts 263°
2026-04-22 02:56 33.93641 -118.40884 123 ft 20 kts 338°
2026-04-22 02:56 33.93777 -118.40912 125 ft 18 kts 353°
2026-04-22 02:56 33.93866 -118.40897 125 ft 13 kts 62°
2026-04-22 02:57 33.93881 -118.40781 126 ft 15 kts 82°
2026-04-22 02:57 33.93896 -118.40645 126 ft 18 kts 82°
2026-04-22 02:57 33.93935 -118.40536 122 ft 13 kts
2026-04-22 02:57 33.94034 -118.40552 122 ft 13 kts 353°
2026-04-22 02:58 33.94062 -118.40536 124 ft 2 kts 78°
2026-04-22 02:58 33.94062 -118.40524 126 ft 1 kts 86°
2026-04-22 02:58 33.94064 -118.40506 126 ft 3 kts 84°
2026-04-22 02:58 33.94064 -118.40498 126 ft 0 kts 84°